Regional Weather Roundup
Issued by NWS Goodland, KS

Home | Current Version | Previous Version | Text Only | Print | Product List | Glossary On
Versions: 1 2 3 4 5 6 7 8 9 10 11 12 13 14 15 16 17 18 19 20 21 22 23 24 25 26 27 28 29 30 31 32 33 34 35 36 37 38 39 40 41 42 43 44 45 46 47 48 49 50
000
ASUS43 KGLD 260708
RWRGLD

GOODLAND FORECAST AREA HOURLY WEATHER ROUNDUP
NATIONAL WEATHER SERVICE GOODLAND KS
100 AM MDT WED JUL 26 2017

...OFFICIAL OBSERVATIONS...

CITY           SKY/WX    TMP DP  RH WIND       PRES   REMARKS
GOODLAND KS    CLOUDY    73  62  68 SW6       29.97F
HILL CITY KS   CLOUDY    86  65  49 S17G30    29.89S
IMPERIAL NEB   MOCLDY    74  63  68 VRB6      29.93S
MCCOOK NEB     CLOUDY    78  70  76 E13       29.90S
AKRON CO       PTCLDY    70  58  65 NW13      30.07S
BURLINGTON CO  MOCLDY    71  62  73 W9        30.04R
LIMON CO       CLOUDY    66  62  87 W14       30.17S
$$

...UNOFFICIAL OBSERVATIONS...

CITY           SKY/WX    TMP DP  RH WIND       PRES   REMARKS
LENORA KS        N/A     84  32  15 MISG        N/A
NORTON KS      CLOUDY    79  63  57 CALM      29.92
SHARON SPRINGS   N/A     71  67  87 CALM        N/A
TRENTON NEB      N/A     75  32  20 CALM        N/A
KIT CARSON CO    N/A     73  60  65 MISG        N/A
YUMA CO        FAIR      68  54  60 W12       30.02R
$$




USA.gov is the U.S. government's official web portal to all federal, state and local government web resources and services.